Regional Weather Roundup
Issued by NWS Cleveland, OH

Home | Current Version | Previous Version | Text Only | Print | Product List | Glossary Off
Versions: 1 2 3 4 5 6 7 8 9 10 11 12 13 14 15 16 17 18 19 20 21 22 23 24 25 26 27 28 29 30 31 32 33 34 35 36 37 38 39 40 41 42 43 44 45 46 47 48 49 50

000
ASUS41 KCLE 260710
RWRCLE
OHIO REGIONAL WEATHER ROUNDUP
NATIONAL WEATHER SERVICE CLEVELAND, OH
300 AM EDT THU APR 26 2018

NOTE: "FAIR" INDICATES FEW OR NO CLOUDS BELOW 12,000 FEET WITH NO
SIGNIFICANT WEATHER AND/OR OBSTRUCTIONS TO VISIBILITY.

OHZ001>008-015>018-024>027-034-035-043-044-260800-
   NORTHWEST OHIO

CITY           SKY/WX    TMP DP  RH WIND       PRES   REMARKS
DEFIANCE       FAIR      41  38  89 E7        29.93F
FINDLAY        FAIR      42  36  79 E8        29.91F
TOLEDO EXPRESS MOCLDY    42  41  96 E3        29.94S
TOLEDO EXEC    FAIR      41  38  89 CALM      29.95F
LIMA           CLOUDY    42  40  92 E6        29.91F
$$

OHZ009>014-019>023-028>033-038-089-260800-
   NORTHEAST OHIO

CITY           SKY/WX    TMP DP  RH WIND       PRES   REMARKS
CLE-HOPKINS    FAIR      35  33  92 W5        29.94F
CLE-LAKEFRONT  FAIR      38  33  82 NW6       29.92F
CUY CO. ARPT   NOT AVBL
LORAIN-ELYRIA  FAIR      35  31  85 NW7       29.94F WCI  29
ASHTABULA      MOCLDY    34  33  96 W5        29.89F WCI  30
AKRON-CANTON   FAIR      36  32  85 NW3       29.90F
WOOSTER        FAIR      35  34  96 N5        29.91F
MANSFIELD      FAIR      38  36  92 N3        29.91F
YOUNGSTOWN     CLOUDY    38  34  85 NW8       29.89F
$$

OHZ042-051>053-060>062-070>072-077>081-260800-
  SOUTHWEST OHIO

CITY           SKY/WX    TMP DP  RH WIND       PRES   REMARKS
CINC-COVINGTON CLOUDY    48  34  58 N6        29.91F
CINC-LUNKEN    FAIR      49  37  63 N9        29.93F
HAMILTON       FAIR      46  38  73 CALM      29.93F
DAYTON         FAIR      41  34  76 NW7       29.91F
WRIGHT-PAT AFB FAIR      44  33  65 CALM      29.90F
DAYTON GENERAL FAIR      46  33  60 NW3       29.90F
WILMINGTON     FAIR      50  37  61 NW7       29.90F
$$

OHZ036-037-039>041-045>050-054>059-063>069-073>076-082>088-260800-
  CENTRAL AND SOUTHEAST OHIO

CITY           SKY/WX    TMP DP  RH WIND       PRES   REMARKS
COLUMBUS       FAIR      44  41  89 E5        29.90S
OSU AIRPORT    FAIR      43  40  89 E8        29.89F
BOLTON FIELD   FAIR      46  43  91 E6        29.90S
RICKENBACK AFB FAIR      44  44 100 E9        29.88F
NEWARK         FAIR      43  41  93 CALM      29.90F
MARION         FAIR      37  35  92 NE7       29.92F FOG
LANCASTER      FAIR      39  38  96 E5        29.91S
ZANESVILLE     FAIR      39  38  96 CALM      29.90F FOG
NEW PHILLY     NOT AVBL
$$




USA.gov is the U.S. government's official web portal to all federal, state and local government web resources and services.